KC5DDG Weather Reports


Display with metric or nautical units.
time (UTC)temp
F
wind
direction
speed
MPH
gust
MPH
rain 1hr
in
rain 24hr
in
rain mn
in
humidity
%
barometer
mb
20260906090506 74 342 0.0 0.0 0.00 0.00 0.00 89 1010.1
20260906090006 74 342 0.0 0.0 0.00 0.00 0.00 88 1010.0
20260906085506 74 342 0.0 0.0 0.00 0.00 0.00 89 1009.9
20260906085007 74 342 0.0 0.0 0.00 0.00 0.00 88 1009.7
20260906084507 74 342 0.0 0.0 0.00 0.00 0.00 88 1009.7
20260906084007 74 342 0.0 0.0 0.00 0.00 0.00 88 1009.8
20260906083507 74 342 0.0 0.0 0.00 0.00 0.00 88 1009.8
20260906083007 74 342 0.0 0.0 0.00 0.00 0.00 88 1009.7
20260906082507 74 342 0.0 0.0 0.00 0.00 0.00 88 1009.7
20260906082007 74 342 0.0 0.0 0.00 0.00 0.00 88 1009.7
20260906081507 74 342 0.0 0.0 0.00 0.00 0.00 87 1009.7
20260906081007 74 342 0.0 0.0 0.00 0.00 0.00 87 1009.8
20260906080507 74 342 0.0 0.0 0.00 0.00 0.00 87 1009.8
20260906080006 75 342 0.0 0.0 0.00 0.00 0.00 87 1009.7
20260906075506 75 342 0.0 0.0 0.00 0.00 0.00 87 1009.6
20260906075006 75 342 0.0 0.0 0.00 0.00 0.00 86 1009.6
20260906074506 75 342 0.0 0.0 0.00 0.00 0.00 86 1009.7
20260906074007 75 342 0.0 0.0 0.00 0.00 0.00 86 1009.7
20260906073506 75 342 0.0 0.0 0.00 0.00 0.00 86 1009.7
20260906073006 75 341 0.0 0.0 0.00 0.00 0.00 85 1009.8
20260906072006 76 340 0.0 0.0 0.00 0.00 0.00 85 1009.9
20260906071507 76 340 0.0 1.0 0.00 0.00 0.00 85 1010.0
20260906071006 76 342 1.0 2.0 0.00 0.00 0.00 85 1009.9
20260906070506 76 348 0.0 1.0 0.00 0.00 0.00 85 1009.9
20260906065006 76 354 1.0 2.0 0.00 0.00 0.00 84 1010.0
20260906064506 76 13 0.0 1.0 0.00 0.00 0.00 84 1009.9
20260906063506 76 344 1.0 2.0 0.00 0.00 0.00 84 1010.0
20260906063006 76 350 1.0 2.0 0.00 0.00 0.00 85 1010.0
20260906062506 76 322 1.0 3.0 0.00 0.00 0.00 85 1010.1
20260906062006 77 330 2.0 3.0 0.00 0.00 0.00 84 1010.2
20260906061505 77 341 3.0 3.0 0.00 0.00 0.00 84 1010.2
20260906061006 77 331 1.0 3.0 0.00 0.00 0.00 84 1010.2
20260906060506 77 320 1.0 2.0 0.00 0.00 0.00 84 1010.2
20260906060006 77 345 0.0 1.0 0.00 0.00 0.00 84 1010.3
20260906055006 77 338 1.0 2.0 0.00 0.00 0.00 84 1010.6
20260906054506 77 340 0.0 2.0 0.00 0.00 0.00 83 1010.6
20260906054006 77 34 1.0 2.0 0.00 0.00 0.00 83 1010.7
20260906053506 77 272 0.0 0.0 0.00 0.00 0.00 83 1010.6
20260906053006 77 272 0.0 0.0 0.00 0.00 0.00 83 1010.6
20260906052506 77 272 0.0 0.0 0.00 0.00 0.00 83 1010.6
20260906052006 77 272 0.0 0.0 0.00 0.00 0.00 84 1010.6
20260906051506 77 272 0.0 0.0 0.00 0.00 0.00 84 1010.6
20260906051006 77 272 0.0 0.0 0.00 0.00 0.00 84 1010.5
20260906050506 77 272 0.0 0.0 0.00 0.00 0.00 83 1010.6
20260906050006 78 272 0.0 1.0 0.00 0.00 0.00 83 1010.6
20260906045506 77 272 0.0 0.0 0.00 0.00 0.00 82 1010.6
20260906045006 78 272 0.0 0.0 0.00 0.00 0.00 82 1010.7
20260906044506 78 272 0.0 0.0 0.00 0.00 0.00 83 1010.7
20260906044006 78 272 0.0 0.0 0.00 0.00 0.00 82 1010.7
20260906043005 78 272 0.0 0.0 0.00 0.00 0.00 82 1010.6
20260906042505 78 272 0.0 0.0 0.00 0.00 0.00 82 1010.7
20260906042006 78 272 0.0 0.0 0.00 0.00 0.00 82 1010.7
20260906041505 78 272 0.0 2.0 0.00 0.00 0.00 81 1010.7
20260906041006 78 245 0.0 0.0 0.00 0.00 0.00 81 1010.7
20260906040505 78 245 0.0 1.0 0.00 0.00 0.00 81 1010.8
20260906040005 78 125 0.0 0.0 0.00 0.00 0.00 81 1010.8
20260906035505 78 123 1.0 2.0 0.00 0.00 0.00 81 1010.9
20260906035006 78 338 1.0 3.0 0.00 0.00 0.00 81 1011.1
20260906034506 78 286 0.0 1.0 0.00 0.00 0.00 80 1011.0
20260906033506 78 277 0.0 2.0 0.00 0.00 0.00 80 1011.1
20260906033006 78 64 0.0 1.0 0.00 0.00 0.00 79 1011.3
20260906032506 79 313 0.0 0.0 0.00 0.00 0.00 79 1011.3
20260906032005 79 313 1.0 2.0 0.00 0.00 0.00 79 1011.5
20260906031506 80 313 0.0 1.0 0.00 0.00 0.00 77 1011.5
20260906030505 80 313 0.0 1.0 0.00 0.00 0.00 75 1011.4
20260906030006 81 216 0.0 2.0 0.00 0.00 0.00 73 1011.3
20260906025505 81 214 0.0 0.0 0.00 0.00 0.00 71 1011.2
20260906025006 81 214 0.0 0.0 0.00 0.00 0.00 70 1011.2
20260906024505 81 214 0.0 1.0 0.00 0.00 0.00 70 1011.2
20260906024006 81 214 0.0 2.0 0.00 0.00 0.00 70 1011.2
20260906023505 81 214 0.0 0.0 0.00 0.00 0.00 71 1011.2
20260906023006 81 214 0.0 0.0 0.00 0.00 0.00 71 1011.3
20260906022505 81 214 0.0 0.0 0.00 0.00 0.00 71 1011.4
20260906022005 81 214 0.0 0.0 0.00 0.00 0.00 71 1011.5
20260906021006 81 214 0.0 0.0 0.00 0.00 0.00 71 1011.6
20260906020505 81 214 0.0 0.0 0.00 0.00 0.00 71 1011.5
20260906020005 81 214 0.0 0.0 0.00 0.00 0.00 71 1011.4
20260906015505 81 214 0.0 0.0 0.00 0.00 0.00 71 1011.2
20260906015005 81 214 0.0 0.0 0.00 0.00 0.00 70 1011.2
20260906014506 81 214 0.0 0.0 0.00 0.00 0.00 70 1011.1
20260906014005 81 214 0.0 0.0 0.00 0.00 0.00 70 1011.1
20260906013506 81 214 0.0 0.0 0.00 0.00 0.00 71 1011.1
20260906013005 81 214 0.0 0.0 0.00 0.00 0.00 71 1011.0
20260906012505 81 214 0.0 2.0 0.00 0.00 0.00 71 1010.9
20260906012005 81 214 2.0 3.0 0.00 0.00 0.00 70 1010.7
20260906011505 81 214 1.0 3.0 0.00 0.00 0.00 70 1010.6
20260906011005 81 214 2.0 3.0 0.00 0.00 0.00 70 1010.5
20260906010505 81 214 0.0 1.0 0.00 0.00 0.00 70 1010.5
20260906010005 81 192 0.0 1.0 0.00 0.00 0.00 70 1010.3
20260906005505 81 136 0.0 0.0 0.00 0.00 0.00 70 1010.2
20260906005005 81 136 1.0 3.0 0.00 0.00 0.00 70 1010.3
20260906004006 82 233 1.0 3.0 0.00 0.00 0.00 70 1010.4
20260906003505 82 326 2.0 3.0 0.00 0.00 0.00 69 1010.2
20260906002005 83 327 1.0 3.0 0.00 0.00 0.00 67 1010.1
20260906001505 83 101 2.0 3.0 0.00 0.00 0.00 67 1010.0
20260906001005 84 59 1.0 8.0 0.00 0.00 0.00 66 1010.2
20260906000506 85 77 2.0 8.0 0.00 0.00 0.00 64 1010.2
20260906000005 85 112 1.0 12.0 0.00 0.00 0.00 64 1010.1
20260905235005 86 125 1.0 3.0 0.00 0.00 0.00 62 1010.1
20260905234505 86 126 0.0 0.0 0.00 0.00 0.00 61 1010.2
20260905234005 86 126 0.0 1.0 0.00 0.00 0.00 61 1010.2
20260905233505 86 182 0.0 2.0 0.00 0.00 0.00 60 1010.0
20260905232505 86 28 0.0 2.0 0.00 0.00 0.00 59 1009.9
20260905232005 86 105 0.0 2.0 0.00 0.00 0.00 59 1009.9
20260905230506 86 255 0.0 3.0 0.00 0.00 0.00 60 1009.7
20260905230005 86 109 2.0 3.0 0.00 0.00 0.00 60 1009.8
20260905225505 86 139 0.0 3.0 0.00 0.00 0.00 60 1009.7
20260905225005 86 305 1.0 3.0 0.00 0.00 0.00 60 1009.6
20260905224505 86 292 1.0 2.0 0.00 0.00 0.00 60 1009.7
20260905224005 87 345 2.0 8.0 0.00 0.00 0.00 59 1009.8
20260905223506 88 350 3.0 8.0 0.00 0.00 0.00 57 1010.0
20260905223005 89 37 2.0 9.0 0.00 0.00 0.00 57 1009.9
20260905222005 90 354 3.0 12.0 0.00 0.00 0.00 56 1009.5
20260905221505 91 344 5.0 12.0 0.00 0.00 0.00 56 1009.3
20260905221005 92 331 6.0 13.0 0.00 0.00 0.00 53 1009.2
20260905220505 96 353 13.0 21.0 0.00 0.00 0.00 48 1009.4
20260905220005 99 355 2.0 3.0 0.00 0.00 0.00 45 1009.1
20260905215005 99 292 0.0 3.0 0.00 0.00 0.00 44 1008.7
20260905214505 99 221 0.0 3.0 0.00 0.00 0.00 46 1008.7
20260905214004 98 133 1.0 3.0 0.00 0.00 0.00 46 1008.7
20260905213505 99 208 3.0 6.0 0.00 0.00 0.00 45 1008.8
20260905213005 99 204 3.0 7.0 0.00 0.00 0.00 45 1008.8
20260905212505 99 308 2.0 5.0 0.00 0.00 0.00 46 1008.8
20260905212005 99 207 3.0 5.0 0.00 0.00 0.00 44 1008.8
20260905211504 98 322 2.0 3.0 0.00 0.00 0.00 46 1008.8
20260905211004 98 297 2.0 6.0 0.00 0.00 0.00 46 1008.9
20260905210505 99 144 2.0 9.0 0.00 0.00 0.00 45 1009.1
20260905210004 99 317 1.0 3.0 0.00 0.00 0.00 46 1009.2
20260905205504 99 233 3.0 8.0 0.00 0.00 0.00 46 1009.1
20260905205004 99 205 2.0 3.0 0.00 0.00 0.00 47 1009.1
20260905204505 98 314 2.0 5.0 0.00 0.00 0.00 47 1009.1
20260905204005 98 349 2.0 7.0 0.00 0.00 0.00 48 1009.1
20260905203505 98 199 4.0 9.0 0.00 0.00 0.00 47 1009.1
20260905203004 98 222 2.0 5.0 0.00 0.00 0.00 47 1008.9
20260905202505 97 274 2.0 6.0 0.00 0.00 0.00 48 1009.0
20260905201504 96 325 3.0 6.0 0.00 0.00 0.00 49 1008.9
20260905201005 96 319 3.0 9.0 0.00 0.00 0.00 47 1009.2
20260905200505 97 329 4.0 9.0 0.00 0.00 0.00 48 1009.3
20260905200004 97 346 6.0 9.0 0.00 0.00 0.00 47 1009.4
20260905195505 97 326 3.0 5.0 0.00 0.00 0.00 48 1009.4
20260905195005 97 191 4.0 6.0 0.00 0.00 0.00 46 1009.4
20260905193505 97 79 2.0 3.0 0.00 0.00 0.00 48 1009.6
20260905193004 97 329 3.0 5.0 0.00 0.00 0.00 46 1009.6
20260905192504 98 318 2.0 3.0 0.00 0.00 0.00 45 1009.7
20260905192004 98 7 1.0 7.0 0.00 0.00 0.00 46 1009.8
20260905191005 98 270 1.0 3.0 0.00 0.00 0.00 45 1010.0
20260905190505 97 350 1.0 3.0 0.00 0.00 0.00 47 1009.9
20260905185005 97 119 2.0 6.0 0.00 0.00 0.00 50 1010.3
20260905184505 97 320 2.0 3.0 0.00 0.00 0.00 51 1010.4
20260905183505 97 236 3.0 8.0 0.00 0.00 0.00 51 1010.6
20260905183005 97 247 1.0 7.0 0.00 0.00 0.00 51 1010.6
20260905182505 96 192 2.0 5.0 0.00 0.00 0.00 52 1010.6
20260905182004 95 186 2.0 5.0 0.00 0.00 0.00 55 1010.8
20260905181504 94 331 3.0 7.0 0.00 0.00 0.00 55 1010.8
20260905180504 94 287 3.0 5.0 0.00 0.00 0.00 55 1011.0
20260905175505 94 306 4.0 8.0 0.00 0.00 0.00 54 1011.0
20260905175004 94 224 1.0 6.0 0.00 0.00 0.00 55 1011.2
20260905174505 94 323 5.0 8.0 0.00 0.00 0.00 55 1011.2
20260905174004 93 96 2.0 3.0 0.00 0.00 0.00 56 1011.2
20260905173504 93 287 1.0 3.0 0.00 0.00 0.00 57 1011.4
20260905173004 93 322 3.0 7.0 0.00 0.00 0.00 57 1011.5
20260905172004 93 232 2.0 5.0 0.00 0.00 0.00 57 1011.5
20260905171504 93 123 1.0 3.0 0.00 0.00 0.00 58 1011.5
20260905171005 93 200 2.0 6.0 0.00 0.00 0.00 58 1011.5
20260905170504 93 215 3.0 8.0 0.00 0.00 0.00 59 1011.6
20260905170004 93 202 1.0 5.0 0.00 0.00 0.00 60 1011.7
20260905165504 93 285 1.0 3.0 0.00 0.00 0.00 59 1011.9
20260905164504 93 250 3.0 6.0 0.00 0.00 0.00 58 1012.0
20260905164004 93 28 1.0 6.0 0.00 0.00 0.00 59 1012.1
20260905163504 93 145 3.0 8.0 0.00 0.00 0.00 60 1012.2
20260905162504 92 321 1.0 3.0 0.00 0.00 0.00 62 1012.4
20260905162004 92 299 2.0 5.0 0.00 0.00 0.00 62 1012.6
20260905160504 91 343 1.0 3.0 0.00 0.00 0.00 61 1012.6
20260905160004 91 324 2.0 3.0 0.00 0.00 0.00 61 1012.8
20260905155503 91 333 2.0 5.0 0.00 0.00 0.00 64 1012.9
20260905155003 90 296 2.0 5.0 0.00 0.00 0.00 64 1012.9
20260905154504 91 299 2.0 3.0 0.00 0.00 0.00 63 1012.8
20260905154004 90 228 2.0 5.0 0.00 0.00 0.00 64 1012.9
20260905152504 89 311 3.0 5.0 0.00 0.00 0.00 66 1012.9
20260905151004 87 326 2.0 5.0 0.00 0.00 0.00 70 1013.0
20260905150504 88 317 3.0 5.0 0.00 0.00 0.00 69 1013.1
20260905150004 88 325 1.0 3.0 0.00 0.00 0.00 70 1013.1
20260905145503 87 11 3.0 5.0 0.00 0.00 0.00 70 1013.3
20260905145004 87 326 2.0 5.0 0.00 0.00 0.00 72 1013.2
20260905144504 87 341 0.0 3.0 0.00 0.00 0.00 73 1013.4
20260905144004 86 291 2.0 3.0 0.00 0.00 0.00 74 1013.4
20260905143503 86 348 1.0 3.0 0.00 0.00 0.00 74 1013.4
20260905143003 85 313 1.0 5.0 0.00 0.00 0.00 74 1013.4
20260905141508 85 301 2.0 3.0 0.00 0.00 0.00 77 1013.5
20260905141007 85 320 1.0 3.0 0.00 0.00 0.00 77 1013.7
20260905135007 83 88 1.0 2.0 0.00 0.00 0.00 81 1013.8
20260905134507 82 221 2.0 3.0 0.00 0.00 0.00 81 1013.7
20260905134008 82 313 1.0 3.0 0.00 0.00 0.00 82 1013.6
20260905133507 82 317 1.0 3.0 0.00 0.00 0.00 82 1013.6
20260905132507 81 257 1.0 3.0 0.00 0.00 0.00 83 1013.7
20260905132007 81 236 1.0 3.0 0.00 0.00 0.00 85 1013.7
20260905131008 80 210 0.0 2.0 0.00 0.00 0.00 86 1013.8
20260905130507 80 216 1.0 2.0 0.00 0.00 0.00 87 1013.9
20260905130007 79 244 1.0 3.0 0.00 0.00 0.00 88 1013.9
20260905125507 78 212 1.0 3.0 0.00 0.00 0.00 89 1014.0
20260905125007 78 229 1.0 3.0 0.00 0.00 0.00 90 1014.0
20260905124507 77 247 1.0 2.0 0.00 0.00 0.00 90 1013.9
20260905124007 77 240 1.0 5.0 0.00 0.00 0.00 91 1013.8
20260905123507 77 238 3.0 5.0 0.00 0.00 0.00 92 1013.7
20260905123007 76 205 2.0 3.0 0.00 0.00 0.00 93 1013.7
20260905122507 76 220 0.0 3.0 0.00 0.00 0.00 94 1013.6
20260905121507 75 195 0.0 0.0 0.00 0.00 0.00 95 1013.6
20260905121007 75 200 0.0 0.0 0.00 0.00 0.00 95 1013.6
20260905120507 75 230 0.0 0.0 0.00 0.00 0.00 95 1013.5
20260905115007 74 260 0.0 0.0 0.00 0.00 0.00 95 1013.4
20260905114007 74 230 0.0 0.0 0.00 0.00 0.00 95 1013.3
20260905113507 74 194 0.0 0.0 0.00 0.00 0.00 95 1013.4
20260905113007 74 194 0.0 0.0 0.00 0.00 0.00 95 1013.4
20260905112507 74 194 0.0 0.0 0.00 0.00 0.00 95 1013.3
20260905112007 74 194 0.0 0.0 0.00 0.00 0.00 94 1013.4
20260905110507 74 306 0.0 0.0 0.00 0.00 0.00 94 1013.1
20260905110007 74 306 0.0 0.0 0.00 0.00 0.00 94 1013.1
20260905105507 74 306 0.0 0.0 0.00 0.00 0.00 94 1013.1
20260905105007 74 306 0.0 0.0 0.00 0.00 0.00 94 1012.9
20260905104506 74 306 0.0 0.0 0.00 0.00 0.00 94 1013.0
20260905103507 74 306 0.0 0.0 0.00 0.00 0.00 94 1012.8
20260905103006 74 306 0.0 0.0 0.00 0.00 0.00 94 1012.8
20260905102507 74 306 0.0 0.0 0.00 0.00 0.00 94 1012.8
20260905102007 74 306 0.0 0.0 0.00 0.00 0.00 94 1012.7
20260905101507 74 306 0.0 0.0 0.00 0.00 0.00 94 1012.7
20260905101007 74 306 0.0 0.0 0.00 0.00 0.00 93 1012.8
20260905100507 74 306 0.0 0.0 0.00 0.00 0.00 93 1012.7
20260905100007 74 306 0.0 0.0 0.00 0.00 0.00 93 1012.5
20260905095007 74 306 0.0 0.0 0.00 0.00 0.00 93 1012.6
20260905094507 74 306 0.0 0.0 0.00 0.00 0.00 93 1012.7
20260905093506 74 306 0.0 0.0 0.00 0.00 0.00 93 1012.6
20260905093006 74 306 0.0 0.0 0.00 0.00 0.00 93 1012.7
20260905092506 75 306 0.0 0.0 0.00 0.00 0.00 93 1012.6
20260905092006 75 306 0.0 0.0 0.00 0.00 0.00 92 1012.5
20260905091507 75 306 0.0 0.0 0.00 0.00 0.00 93 1012.6
20260905091007 75 306 0.0 0.0 0.00 0.00 0.00 93 1012.7